Theta_e
329 326 343 340 341 339 338 337 334 330 330 327 321 320 323 325 329 331 331 330 328 324 319 323 330 331 333 332 331 331 328 328 329 325 321 316 313 315 316 321 320 320 314
327 325 339 343 342 340 339 336 334 332 332 326 317 325 325 326 330 330 330 328 324 319 314 314 326 327 332 333 333 331 331 330 326 321 317 312 314 315 315 329 326 321 318
324 323 336 342 343 341 339 337 335 332 332 322 318 332 331 329 327 328 327 324 319 318 314 313 316 319 323 328 330 329 328 323 319 319 316 313 315 317 319 322 328 319 324
323 323 326 340 341 340 338 337 334 334 326 321 317 330 330 328 328 327 322 322 323 318 313 312 312 312 313 318 319 317 314 315 313 314 312 315 315 316 317 325 328 327 323
322 323 326 336 341 339 336 336 334 329 325 321 323 325 326 327 328 328 327 327 325 321 314 314 313 313 313 313 314 314 314 313 313 312 311 310 310 312 316 327 328 328 328
323 324 325 327 332 337 335 334 332 329 324 318 318 328 329 330 330 331 329 328 328 322 315 315 316 316 316 316 317 317 317 317 318 318 319 319 318 315 312 316 323 327 328
325 325 325 328 331 337 333 330 331 328 325 317 316 326 330 330 331 332 331 329 329 326 317 317 317 317 318 318 318 319 319 320 320 322 324 325 325 323 321 317 317 327 328
329 328 327 328 331 335 333 332 331 329 326 320 319 322 328 330 331 332 331 329 330 323 318 318 320 321 322 324 326 326 327 327 327 328 328 327 327 326 326 325 325 323 324
332 332 330 328 329 332 334 333 332 330 335 325 320 318 321 326 328 329 330 330 325 318 319 324 325 327 328 329 330 330 329 329 329 329 329 329 330 330 328 329 328 329 329
335 334 333 333 330 329 331 333 331 332 335 333 327 320 316 318 324 326 325 318 318 323 326 327 328 328 329 329 329 329 329 328 328 327 327 328 328 328 328 328 329 328 327
333 335 335 335 333 329 330 331 331 333 335 332 329 320 316 316 319 319 318 319 325 327 328 329 329 329 329 329 328 328 327 327 326 325 326 323 324 327 328 328 329 329 330
330 331 334 335 333 331 331 332 330 331 330 328 326 320 315 317 319 320 323 325 328 329 331 330 329 328 327 326 327 326 325 323 322 320 320 321 322 323 323 323 324 327 328
327 329 331 332 334 333 330 332 330 331 332 329 326 321 320 320 322 325 328 329 330 330 331 328 327 326 326 327 326 326 321 317 315 315 315 317 320 322 321 318 315 321 321
326 327 329 332 333 333 332 332 330 332 334 331 327 326 326 326 327 329 330 329 329 329 328 328 327 327 326 326 321 316 313 312 312 312 311 313 315 316 316 315 318 318 320
326 326 325 328 332 334 334 335 333 335 334 331 331 330 329 328 329 330 329 329 328 327 326 326 326 323 320 315 313 312 311 309 307 306 307 308 309 311 312 314 316 317 319
326 326 326 324 329 334 335 337 336 337 334 333 332 331 331 331 332 332 328 325 325 325 326 324 314 312 311 311 309 307 305 305 304 304 305 308 310 311 311 311 311 312 312
325 326 326 325 324 333 337 338 338 337 335 333 331 330 330 329 329 328 325 324 326 325 313 311 309 308 307 305 304 303 303 303 303 304 306 308 309 310 310 311 310 309 310
325 325 325 325 324 332 338 339 338 335 334 331 330 331 329 329 328 327 325 323 316 310 308 307 307 306 304 303 303 303 302 302 303 304 304 304 304 304 303 303 303 304 304
325 325 324 324 325 333 338 339 338 335 334 332 330 330 328 325 325 324 322 311 308 308 308 307 305 303 303 302 302 302 301 301 302 304 302 300 299 298 297 298 298 297 297
324 324 323 325 329 336 338 338 336 334 334 332 331 331 327 325 323 312 309 309 310 309 307 304 303 302 301 301 301 301 301 300 301 304 300 301 298 298 297 297 297 296 296
323 323 323 327 334 337 337 336 335 333 333 332 331 329 327 325 310 309 309 310 310 308 305 303 302 301 301 300 301 301 299 298 299 297 299 301 297 297 296 296 296 295 295
323 322 323 329 335 337 337 337 334 331 330 329 328 326 319 309 309 309 311 311 310 308 305 303 301 300 299 298 296 296 296 297 298 298 297 297 296 296 295 295 294 294 294
322 322 323 330 336 337 337 336 332 329 328 327 324 319 309 309 309 311 311 310 309 308 306 302 300 299 297 295 293 293 293 293 292 294 295 295 294 294 293 293 293 293 293
322 322 323 327 335 335 333 334 331 327 327 324 319 310 309 309 311 311 311 310 309 308 305 302 299 297 294 293 293 292 292 291 290 291 292 293 292 292 293 293 292 292 292
322 322 322 324 331 333 333 333 329 327 326 322 311 309 309 310 311 310 310 309 308 306 304 301 297 295 293 292 292 292 292 291 290 289 289 290 292 292 291 290 290 290 290
322 323 325 326 330 332 333 330 328 326 326 316 309 309 309 310 310 310 308 307 307 305 302 299 295 293 292 292 292 291 290 289 289 288 288 288 288 289 289 290 290 289 289
Wind_Speed
9 10 17 14 11 9 7 6 4 1 4 5 5 7 9 9 7 5 5 6 8 7 3 5 4 5 5 6 7 7 8 9 11 14 16 12 9 7 8 7 8 8 6
8 12 15 16 13 10 8 6 4 3 6 5 1 6 5 8 9 7 5 6 7 6 4 3 6 4 7 6 7 6 7 9 11 11 13 6 3 3 1 1 5 5 5
9 12 15 17 13 10 10 7 5 5 6 4 4 10 8 6 5 7 5 4 2 4 4 3 4 5 6 8 7 7 8 9 9 9 9 4 3 3 3 3 8 4 7
10 12 14 16 14 13 11 7 5 5 4 2 4 16 11 5 3 4 8 10 9 8 7 7 5 2 2 4 5 6 7 6 7 7 6 4 3 4 4 7 7 7 7
13 12 13 16 14 13 9 7 5 4 3 0 6 10 7 6 5 4 4 7 9 9 8 8 8 6 5 3 1 1 2 3 4 4 5 5 5 5 4 2 6 9 10
14 13 12 13 14 12 10 8 5 3 2 2 5 9 9 5 3 4 3 4 5 7 7 8 9 9 8 7 6 4 4 4 5 5 6 7 7 6 6 6 7 10 11
14 14 12 13 14 12 10 7 5 3 2 2 5 9 9 7 3 3 5 4 4 4 5 6 7 7 6 5 5 4 4 4 6 6 6 7 7 7 6 6 6 9 11
10 12 12 12 11 10 10 7 5 4 4 3 5 8 9 8 5 4 5 4 4 3 4 5 5 5 5 5 5 6 5 5 6 7 7 7 7 6 6 7 8 9 9
10 11 10 10 10 11 10 8 6 5 5 3 3 5 7 8 8 6 5 5 3 2 4 5 4 5 6 7 7 8 7 7 8 8 8 8 8 9 9 9 11 12 12
10 11 11 10 11 11 11 10 8 6 8 5 1 2 4 7 8 7 4 2 1 1 2 4 5 6 6 6 7 9 10 12 12 12 11 10 10 10 11 11 13 13 13
14 13 13 12 12 12 12 11 10 8 10 7 6 3 4 6 6 5 4 3 2 1 1 2 3 4 7 9 11 11 12 12 13 12 12 11 11 11 11 12 13 15 17
12 14 16 15 13 14 15 14 13 12 10 8 7 4 5 7 7 5 4 4 2 1 2 3 5 9 10 11 11 12 14 15 14 14 13 13 12 13 13 14 15 16 16
10 12 15 15 15 16 17 16 15 13 10 9 8 8 7 6 5 5 4 3 2 4 5 6 7 10 12 13 14 16 17 16 17 17 17 16 16 15 15 15 14 13 15
13 14 15 17 17 17 17 17 16 14 11 10 9 8 6 6 6 5 4 2 3 4 7 9 10 12 15 17 16 17 18 19 20 20 19 18 17 16 15 11 9 13 12
19 19 20 19 20 19 18 18 17 15 11 10 10 9 7 6 6 4 2 3 5 7 10 11 13 14 15 15 18 20 21 21 20 19 18 17 15 12 10 9 8 8 5
24 23 24 23 23 21 20 19 17 15 12 11 10 9 8 6 5 5 5 4 7 11 13 12 14 16 18 20 21 21 20 19 16 13 11 10 7 7 8 8 10 9 10
25 26 27 25 26 24 22 20 18 15 13 12 10 9 8 7 6 5 4 6 10 11 11 14 18 19 20 19 18 16 14 14 12 9 8 8 9 11 13 13 13 14 15
21 23 25 24 24 26 24 22 21 17 14 12 11 10 9 8 6 7 6 7 8 10 13 16 18 18 17 16 13 13 12 12 11 9 9 10 12 13 14 15 16 17 18
21 19 23 24 24 27 26 25 20 15 15 14 11 11 9 7 5 6 6 6 7 10 12 14 16 16 15 13 11 11 13 10 11 11 11 9 11 13 15 16 16 19 21
22 20 21 23 24 27 27 25 20 17 16 15 14 13 10 8 8 5 4 4 8 11 13 13 14 16 17 17 14 13 10 9 11 13 18 14 16 16 21 20 20 24 24
21 20 19 22 27 29 29 27 23 19 17 17 16 14 12 10 8 4 3 6 9 13 16 17 16 15 17 20 20 18 8 8 11 18 11 18 22 19 24 21 27 29 29
22 20 19 23 29 30 29 27 21 18 18 17 16 15 13 11 7 3 3 7 12 16 17 17 17 17 19 21 22 18 10 11 3 7 25 18 25 21 28 25 28 29 29
24 22 22 24 30 30 27 24 21 20 20 21 20 18 16 12 7 3 4 8 12 15 17 18 18 18 17 17 18 14 8 6 30 9 28 19 31 30 33 33 33 31 31
27 23 21 25 31 29 28 24 22 24 24 23 22 20 16 12 7 3 5 9 12 15 16 17 18 18 18 18 16 16 15 17 13 18 16 38 33 41 39 38 36 38 35
27 24 21 24 29 30 27 22 22 22 23 24 24 20 16 11 6 4 6 9 12 14 15 16 16 17 18 18 20 21 20 20 20 20 35 39 45 44 43 44 42 35 36
27 22 22 25 30 31 26 25 22 24 26 27 25 20 15 10 6 6 7 10 13 14 15 16 16 17 18 19 20 20 21 21 23 22 32 41 43 44 48 42 39 36 36
Wind_Direction
177 163 160 160 169 187 195 205 204 277 315 303 257 227 206 203 213 219 234 269 292 326 331 213 169 128 108 135 185 225 246 270 285 308 318 310 298 289 264 255 272 266 253
176 162 160 163 183 188 207 217 228 282 308 314 273 137 137 175 179 199 232 274 316 350 13 243 208 194 174 174 199 217 242 265 292 317 332 340 348 350 322 284 251 263 190
164 163 157 162 177 193 216 224 243 281 312 328 134 152 164 150 172 212 233 295 27 20 34 56 195 207 216 216 226 245 260 278 296 313 322 350 350 338 314 268 269 263 222
160 161 159 164 179 194 211 221 249 297 310 316 134 174 172 160 159 101 94 72 54 42 43 57 76 95 204 222 246 260 275 291 315 309 309 319 313 311 320 303 258 303 289
155 160 164 171 178 195 211 222 244 286 301 303 136 136 138 120 115 91 44 29 30 35 45 57 63 65 64 70 30 16 3 353 355 357 350 329 324 310 299 279 269 272 268
160 163 166 171 186 196 200 213 232 257 265 181 165 139 138 129 144 197 123 340 1 21 43 49 56 58 58 48 36 35 40 22 27 15 357 352 345 328 306 279 256 269 280
168 169 175 174 181 189 199 200 220 235 207 141 157 155 153 150 157 195 160 252 323 343 19 28 35 38 46 42 21 15 11 350 347 347 340 341 335 325 317 302 297 259 275
183 176 178 183 188 192 202 205 224 232 200 108 141 162 167 175 181 133 182 264 292 333 12 14 19 27 24 19 15 8 5 351 342 337 331 331 321 317 308 305 301 287 245
189 196 194 195 199 206 209 219 231 233 184 135 98 163 182 182 187 179 206 241 269 334 4 9 25 32 33 26 12 357 343 336 326 322 323 318 313 302 297 307 309 300 296
212 209 209 213 214 216 218 223 229 228 191 193 236 198 187 185 188 188 193 186 196 41 57 39 31 23 8 349 332 318 311 307 303 302 300 294 285 292 290 283 281 281 273
221 222 220 224 228 222 224 227 225 217 203 226 239 236 198 180 176 170 166 174 159 118 45 35 2 329 324 321 310 306 308 304 307 313 303 296 286 278 276 280 280 279 275
233 235 230 230 236 230 225 226 226 223 218 223 226 209 164 169 174 169 177 182 200 242 297 321 328 324 316 320 321 316 312 310 309 308 303 296 294 291 287 284 281 281 283
257 249 246 242 240 234 229 230 228 227 227 224 222 194 186 178 180 184 191 204 248 298 299 305 320 313 311 315 312 310 311 310 309 308 305 301 299 297 299 303 299 292 289
266 266 255 246 243 238 232 231 233 231 231 226 209 198 191 188 194 206 236 283 299 305 305 304 301 302 305 308 308 305 303 302 301 300 299 298 294 296 299 303 279 276 279
270 274 269 254 243 237 231 228 227 228 233 219 213 210 212 212 220 234 221 277 292 295 296 302 302 301 302 304 303 301 300 298 296 294 292 291 292 291 265 267 269 280 278
265 270 268 258 244 235 230 227 224 224 225 219 218 215 216 211 232 229 251 269 292 295 300 305 305 305 307 308 307 305 302 302 302 298 291 286 276 263 271 274 281 287 279
262 262 259 256 244 231 227 224 222 219 217 209 206 200 216 233 239 222 240 274 285 297 307 313 308 308 307 307 310 305 304 301 296 289 285 279 277 278 280 283 286 287 287
268 255 247 246 236 224 220 219 215 213 215 209 218 217 224 234 225 230 258 280 288 304 310 310 307 308 312 317 318 309 305 296 280 276 285 289 287 288 287 286 287 288 288
261 255 252 251 231 214 211 214 213 218 212 214 215 212 221 212 213 230 244 268 302 316 324 324 322 324 326 328 330 320 309 288 268 260 271 293 304 298 304 295 300 302 298
259 252 245 243 221 207 209 208 209 216 208 206 208 207 208 208 210 205 240 300 325 333 339 338 340 338 336 337 336 332 312 283 263 263 277 267 316 301 315 300 295 310 303
238 236 234 231 212 208 206 199 204 213 204 204 206 202 203 205 189 202 282 336 342 345 351 349 345 340 335 340 342 347 331 297 271 288 279 272 312 296 308 307 300 302 301
228 229 230 220 213 209 209 198 202 210 199 201 191 188 188 186 188 216 315 345 354 355 352 348 346 348 348 348 352 351 337 326 281 287 299 299 293 299 304 306 306 305 305
222 225 223 212 210 208 203 200 195 195 193 187 183 188 181 186 196 225 328 352 351 351 351 348 346 345 346 348 350 0 339 319 317 313 314 307 313 311 315 316 315 316 314
223 220 218 212 210 205 201 203 212 197 189 186 185 183 186 190 201 254 330 338 345 349 347 343 341 338 339 339 342 339 332 320 317 315 308 314 316 316 318 319 319 319 318
219 217 212 209 204 201 199 208 202 192 189 186 183 186 191 195 211 273 310 330 339 340 339 337 334 332 333 334 334 331 328 324 321 306 309 312 314 317 318 321 321 322 319
210 209 204 196 191 194 199 197 199 192 189 186 186 189 194 202 228 272 305 324 329 332 331 330 329 328 326 326 326 327 326 325 318 314 309 313 314 317 317 319 321 321 318